Year,Month,Day,Hour,Minute,Value (Times are PST for temperature in C)
2010,08,01,00,00,16.40
2010,08,01,00,01,16.40
2010,08,01,00,02,16.40
2010,08,01,00,03,16.40
2010,08,01,00,04,16.40
2010,08,01,00,05,16.40
2010,08,01,00,06,16.40
2010,08,01,00,07,16.40
2010,08,01,00,08,16.40
2010,08,01,00,09,16.40
2010,08,01,00,10,16.30
2010,08,01,00,11,16.30
2010,08,01,00,12,16.20
2010,08,01,00,13,16.20
2010,08,01,00,14,16.10
2010,08,01,00,15,16.10
2010,08,01,00,16,16.00
2010,08,01,00,17,15.90
2010,08,01,00,18,15.80
2010,08,01,00,19,15.80
2010,08,01,00,20,15.70
2010,08,01,00,21,15.60
2010,08,01,00,22,15.50
2010,08,01,00,23,15.50
2010,08,01,00,24,15.40
2010,08,01,00,25,15.30
2010,08,01,00,26,15.30
2010,08,01,00,27,15.30
2010,08,01,00,28,15.20
2010,08,01,00,29,15.20
2010,08,01,00,30,15.10
2010,08,01,00,31,15.10
2010,08,01,00,32,15.00
2010,08,01,00,33,15.00
2010,08,01,00,34,14.90
2010,08,01,00,35,14.90
2010,08,01,00,36,14.80
2010,08,01,00,37,14.80
2010,08,01,00,38,14.80
2010,08,01,00,39,14.80
2010,08,01,00,40,14.80
2010,08,01,00,41,14.70
2010,08,01,00,42,14.70
2010,08,01,00,43,14.70
2010,08,01,00,44,14.70
2010,08,01,00,45,14.70
2010,08,01,00,46,14.60
2010,08,01,00,47,14.60
2010,08,01,00,48,14.60
2010,08,01,00,49,14.50
2010,08,01,00,50,14.50
2010,08,01,00,51,14.50
2010,08,01,00,52,14.40
2010,08,01,00,53,14.40
2010,08,01,00,54,14.40
2010,08,01,00,55,14.40
2010,08,01,00,56,14.40
2010,08,01,00,57,14.40
2010,08,01,00,58,14.30
2010,08,01,00,59,14.30
2010,08,01,01,00,14.40
2010,08,01,01,01,14.40
2010,08,01,01,02,14.30
2010,08,01,01,03,14.30
2010,08,01,01,04,14.30
2010,08,01,01,05,14.30
2010,08,01,01,06,14.30
2010,08,01,01,07,14.20
2010,08,01,01,08,14.20
2010,08,01,01,09,14.20
2010,08,01,01,10,14.20
2010,08,01,01,11,14.20
2010,08,01,01,12,14.20
2010,08,01,01,13,14.20
2010,08,01,01,14,14.10
2010,08,01,01,15,14.10
2010,08,01,01,16,14.10
2010,08,01,01,17,14.00
2010,08,01,01,18,14.00
2010,08,01,01,19,14.00
2010,08,01,01,20,14.00
2010,08,01,01,21,13.90
2010,08,01,01,22,13.90
2010,08,01,01,23,13.90
2010,08,01,01,24,13.90
2010,08,01,01,25,13.90
2010,08,01,01,26,13.90
2010,08,01,01,27,13.90
2010,08,01,01,28,14.00
2010,08,01,01,29,14.00
2010,08,01,01,30,14.00
2010,08,01,01,31,14.00
2010,08,01,01,32,14.00
2010,08,01,01,33,14.10
2010,08,01,01,34,14.10
2010,08,01,01,35,14.10
2010,08,01,01,36,14.10
2010,08,01,01,37,14.10
2010,08,01,01,38,14.10
2010,08,01,01,39,14.10
2010,08,01,01,40,14.10
2010,08,01,01,41,14.10
2010,08,01,01,42,14.10
2010,08,01,01,43,14.10
2010,08,01,01,44,14.10
2010,08,01,01,45,14.10
2010,08,01,01,46,14.10
2010,08,01,01,47,14.10
2010,08,01,01,48,14.10
2010,08,01,01,49,14.10
2010,08,01,01,50,14.10
2010,08,01,01,51,14.10
2010,08,01,01,52,14.00
2010,08,01,01,53,14.00
2010,08,01,01,54,14.00
2010,08,01,01,55,14.00
2010,08,01,01,56,14.00
2010,08,01,01,57,14.00
2010,08,01,01,58,14.00
2010,08,01,01,59,14.00
2010,08,01,02,00,13.90
2010,08,01,02,01,13.90
2010,08,01,02,02,14.00
2010,08,01,02,03,13.90
2010,08,01,02,04,13.90
2010,08,01,02,05,13.90
2010,08,01,02,06,13.90
2010,08,01,02,07,13.90
2010,08,01,02,08,13.90
2010,08,01,02,09,13.90
2010,08,01,02,10,13.90
2010,08,01,02,11,13.90
2010,08,01,02,12,13.90
2010,08,01,02,13,13.90
2010,08,01,02,14,13.80
2010,08,01,02,15,13.80
2010,08,01,02,16,13.80
2010,08,01,02,17,13.80
2010,08,01,02,18,13.70
2010,08,01,02,19,13.70
2010,08,01,02,20,13.70
2010,08,01,02,21,13.70
2010,08,01,02,22,13.70
2010,08,01,02,23,13.70
2010,08,01,02,24,13.70
2010,08,01,02,25,13.70
2010,08,01,02,26,13.70
2010,08,01,02,27,13.70
2010,08,01,02,28,13.70
2010,08,01,02,29,13.70
2010,08,01,02,30,13.70
2010,08,01,02,31,13.70
2010,08,01,02,32,13.70
2010,08,01,02,33,13.70
2010,08,01,02,34,13.70
2010,08,01,02,35,13.80
2010,08,01,02,36,13.80
2010,08,01,02,37,13.80
2010,08,01,02,38,13.80
2010,08,01,02,39,13.80
2010,08,01,02,40,13.80
2010,08,01,02,41,13.80
2010,08,01,02,42,13.80
2010,08,01,02,43,13.80
2010,08,01,02,44,13.80
2010,08,01,02,45,13.80
2010,08,01,02,46,13.80
2010,08,01,02,47,13.90
2010,08,01,02,48,13.90
2010,08,01,02,49,13.90
2010,08,01,02,50,13.90
2010,08,01,02,51,13.90
2010,08,01,02,52,13.90
2010,08,01,02,53,13.90
2010,08,01,02,54,13.90
2010,08,01,02,55,13.90
2010,08,01,02,56,13.90
2010,08,01,02,57,13.90
2010,08,01,02,58,13.90
2010,08,01,02,59,13.90
2010,08,01,03,00,13.90
2010,08,01,03,01,13.80
2010,08,01,03,02,13.80
2010,08,01,03,03,13.80
2010,08,01,03,04,13.80
2010,08,01,03,05,13.80
2010,08,01,03,06,13.70
2010,08,01,03,07,13.70
2010,08,01,03,08,13.70
2010,08,01,03,09,13.70
2010,08,01,03,10,13.70
2010,08,01,03,11,13.70
2010,08,01,03,12,13.70
2010,08,01,03,13,13.70
2010,08,01,03,14,13.70
2010,08,01,03,15,13.70
2010,08,01,03,16,13.70
2010,08,01,03,17,13.70
2010,08,01,03,18,13.70
2010,08,01,03,19,13.70
2010,08,01,03,20,13.60
2010,08,01,03,21,13.60
2010,08,01,03,22,13.60
2010,08,01,03,23,13.60
2010,08,01,03,24,13.60
2010,08,01,03,25,13.60
2010,08,01,03,26,13.50
2010,08,01,03,27,13.50
2010,08,01,03,28,13.50
2010,08,01,03,29,13.50
2010,08,01,03,30,13.50
2010,08,01,03,31,13.50
2010,08,01,03,32,13.50
2010,08,01,03,33,13.50
2010,08,01,03,34,13.50
2010,08,01,03,35,13.50
2010,08,01,03,36,13.40
2010,08,01,03,37,13.40
2010,08,01,03,38,13.40
2010,08,01,03,39,13.40
2010,08,01,03,40,13.40
2010,08,01,03,41,13.40
2010,08,01,03,42,13.40
2010,08,01,03,43,13.40
2010,08,01,03,44,13.40
2010,08,01,03,45,13.40
2010,08,01,03,46,13.40
2010,08,01,03,47,13.40
2010,08,01,03,48,13.40
2010,08,01,03,49,13.40
2010,08,01,03,50,13.30
2010,08,01,03,51,13.30
2010,08,01,03,52,13.30
2010,08,01,03,53,13.30
2010,08,01,03,54,13.30
2010,08,01,03,55,13.30
2010,08,01,03,56,13.30
2010,08,01,03,57,13.30
2010,08,01,03,58,13.30
2010,08,01,03,59,13.30
2010,08,01,04,00,13.30
2010,08,01,04,01,13.20
2010,08,01,04,02,13.20
2010,08,01,04,03,13.20
2010,08,01,04,04,13.20
2010,08,01,04,05,13.20
2010,08,01,04,06,13.20
2010,08,01,04,07,13.10
2010,08,01,04,08,13.10
2010,08,01,04,09,13.10
2010,08,01,04,10,13.10
2010,08,01,04,11,13.10
2010,08,01,04,12,13.10
2010,08,01,04,13,13.10
2010,08,01,04,14,13.10
2010,08,01,04,15,13.10
2010,08,01,04,16,13.10
2010,08,01,04,17,13.10
2010,08,01,04,18,13.10
2010,08,01,04,19,13.10
2010,08,01,04,20,13.10
2010,08,01,04,21,13.10
2010,08,01,04,22,13.10
2010,08,01,04,23,13.10
2010,08,01,04,24,13.10
2010,08,01,04,25,13.10
2010,08,01,04,26,13.10
2010,08,01,04,27,13.10
2010,08,01,04,28,13.10
2010,08,01,04,29,13.10
2010,08,01,04,30,13.10
2010,08,01,04,31,13.00
2010,08,01,04,32,13.00
2010,08,01,04,33,13.00
2010,08,01,04,34,13.00
2010,08,01,04,35,13.00
2010,08,01,04,36,13.00
2010,08,01,04,37,13.00
2010,08,01,04,38,13.10
2010,08,01,04,39,13.00
2010,08,01,04,40,13.00
2010,08,01,04,41,13.00
2010,08,01,04,42,13.00
2010,08,01,04,43,13.00
2010,08,01,04,44,13.00
2010,08,01,04,45,13.00
2010,08,01,04,46,13.00
2010,08,01,04,47,12.90
2010,08,01,04,48,12.90
2010,08,01,04,49,12.90
2010,08,01,04,50,12.90
2010,08,01,04,51,12.90
2010,08,01,04,52,12.90
2010,08,01,04,53,12.90
2010,08,01,04,54,12.90
2010,08,01,04,55,12.80
2010,08,01,04,56,12.80
2010,08,01,04,57,12.80
2010,08,01,04,58,12.80
2010,08,01,04,59,12.80
2010,08,01,05,00,12.80
2010,08,01,05,01,12.80
2010,08,01,05,02,12.70
2010,08,01,05,03,12.70
2010,08,01,05,04,12.70
2010,08,01,05,05,12.60
2010,08,01,05,06,12.60
2010,08,01,05,07,12.60
2010,08,01,05,08,12.60
2010,08,01,05,09,12.60
2010,08,01,05,10,12.60
2010,08,01,05,11,12.60
2010,08,01,05,12,12.50
2010,08,01,05,13,12.50
2010,08,01,05,14,12.50
2010,08,01,05,15,12.40
2010,08,01,05,16,12.40
2010,08,01,05,17,12.40
2010,08,01,05,18,12.30
2010,08,01,05,19,12.30
2010,08,01,05,20,12.30
2010,08,01,05,21,12.30
2010,08,01,05,22,12.30
2010,08,01,05,23,12.30
2010,08,01,05,24,12.30
2010,08,01,05,25,12.30
2010,08,01,05,26,12.20
2010,08,01,05,27,12.20
2010,08,01,05,28,12.20
2010,08,01,05,29,12.20
2010,08,01,05,30,12.10
2010,08,01,05,31,12.10
2010,08,01,05,32,12.10
2010,08,01,05,33,12.10
2010,08,01,05,34,12.10
2010,08,01,05,35,12.00
2010,08,01,05,36,12.00
2010,08,01,05,37,12.00
2010,08,01,05,38,12.00
2010,08,01,05,39,11.90
2010,08,01,05,40,11.90
2010,08,01,05,41,11.90
2010,08,01,05,42,11.90
2010,08,01,05,43,11.90
2010,08,01,05,44,11.90
2010,08,01,05,45,11.90
2010,08,01,05,46,11.90
2010,08,01,05,47,11.90
2010,08,01,05,48,11.80
2010,08,01,05,49,11.80
2010,08,01,05,50,11.80
2010,08,01,05,51,11.80
2010,08,01,05,52,11.80
2010,08,01,05,53,11.80
2010,08,01,05,54,11.80
2010,08,01,05,55,11.80
2010,08,01,05,56,11.80
2010,08,01,05,57,11.80
2010,08,01,05,58,11.80
2010,08,01,05,59,11.80
2010,08,01,06,00,11.80
2010,08,01,06,01,11.80
2010,08,01,06,02,11.80
2010,08,01,06,03,11.80
2010,08,01,06,04,11.80
2010,08,01,06,05,11.80
2010,08,01,06,06,11.80
2010,08,01,06,07,11.80
2010,08,01,06,08,11.80
2010,08,01,06,09,11.80
2010,08,01,06,10,11.80
2010,08,01,06,11,11.80
2010,08,01,06,12,11.80
2010,08,01,06,13,11.80
2010,08,01,06,14,11.80
2010,08,01,06,15,11.80
2010,08,01,06,16,11.80
2010,08,01,06,17,11.80
2010,08,01,06,18,11.90
2010,08,01,06,19,11.90
2010,08,01,06,20,11.90
2010,08,01,06,21,11.90
2010,08,01,06,22,11.90
2010,08,01,06,23,11.80
2010,08,01,06,24,11.80
2010,08,01,06,25,11.80
2010,08,01,06,26,11.80
2010,08,01,06,27,11.80
2010,08,01,06,28,11.80
2010,08,01,06,29,11.80
2010,08,01,06,30,11.80
2010,08,01,06,31,11.80
2010,08,01,06,32,11.80
2010,08,01,06,33,11.90
2010,08,01,06,34,11.90
2010,08,01,06,35,11.90
2010,08,01,06,36,12.00
2010,08,01,06,37,12.00
2010,08,01,06,38,12.00
2010,08,01,06,39,12.10
2010,08,01,06,40,12.10
2010,08,01,06,41,12.10
2010,08,01,06,42,12.10
2010,08,01,06,43,12.10
2010,08,01,06,44,12.10
2010,08,01,06,45,12.10
2010,08,01,06,46,12.10
2010,08,01,06,47,12.10
2010,08,01,06,48,12.20
2010,08,01,06,49,12.20
2010,08,01,06,50,12.20
2010,08,01,06,51,12.20
2010,08,01,06,52,12.20
2010,08,01,06,53,12.20
2010,08,01,06,54,12.20
2010,08,01,06,55,12.20
2010,08,01,06,56,12.20
2010,08,01,06,57,12.20
2010,08,01,06,58,12.30
2010,08,01,06,59,12.30
2010,08,01,07,00,12.30
2010,08,01,07,01,12.30
2010,08,01,07,02,12.30
2010,08,01,07,03,12.30
2010,08,01,07,04,12.30
2010,08,01,07,05,12.30
2010,08,01,07,06,12.30
2010,08,01,07,07,12.30
2010,08,01,07,08,12.30
2010,08,01,07,09,12.30
2010,08,01,07,10,12.30
2010,08,01,07,11,12.30
2010,08,01,07,12,12.30
2010,08,01,07,13,12.30
2010,08,01,07,14,12.30
2010,08,01,07,15,12.30
2010,08,01,07,16,12.30
2010,08,01,07,17,12.30
2010,08,01,07,18,12.30
2010,08,01,07,19,12.40
2010,08,01,07,20,12.40
2010,08,01,07,21,12.40
2010,08,01,07,22,12.40
2010,08,01,07,23,12.40
2010,08,01,07,24,12.40
2010,08,01,07,25,12.40
2010,08,01,07,26,12.40
2010,08,01,07,27,12.50
2010,08,01,07,28,12.50
2010,08,01,07,29,12.50
2010,08,01,07,30,12.50
2010,08,01,07,31,12.50
2010,08,01,07,32,12.50
2010,08,01,07,33,12.50
2010,08,01,07,34,12.60
2010,08,01,07,35,12.60
2010,08,01,07,36,12.60
2010,08,01,07,37,12.60
2010,08,01,07,38,12.60
2010,08,01,07,39,12.70
2010,08,01,07,40,12.70
2010,08,01,07,41,12.70
2010,08,01,07,42,12.70
2010,08,01,07,43,12.70
2010,08,01,07,44,12.80
2010,08,01,07,45,12.80
2010,08,01,07,46,12.80
2010,08,01,07,47,12.80
2010,08,01,07,48,12.80
2010,08,01,07,49,12.80
2010,08,01,07,50,12.90
2010,08,01,07,51,12.90
2010,08,01,07,52,13.00
2010,08,01,07,53,13.00
2010,08,01,07,54,13.10
2010,08,01,07,55,13.10
2010,08,01,07,56,13.20
2010,08,01,07,57,13.20
2010,08,01,07,58,13.20
2010,08,01,07,59,13.30
2010,08,01,08,00,13.30
2010,08,01,08,01,13.30
2010,08,01,08,02,13.30
2010,08,01,08,03,13.30
2010,08,01,08,04,13.30
2010,08,01,08,05,13.40
2010,08,01,08,06,13.40
2010,08,01,08,07,13.40
2010,08,01,08,08,13.40
2010,08,01,08,09,13.40
2010,08,01,08,10,13.50
2010,08,01,08,11,13.50
2010,08,01,08,12,13.60
2010,08,01,08,13,13.60
2010,08,01,08,14,13.70
2010,08,01,08,15,13.70
2010,08,01,08,16,13.70
2010,08,01,08,17,13.70
2010,08,01,08,18,13.80
2010,08,01,08,19,13.80
2010,08,01,08,20,13.90
2010,08,01,08,21,13.90
2010,08,01,08,22,14.00
2010,08,01,08,23,14.00
2010,08,01,08,24,14.00
2010,08,01,08,25,14.10
2010,08,01,08,26,14.10
2010,08,01,08,27,14.10
2010,08,01,08,28,14.10
2010,08,01,08,29,14.10
2010,08,01,08,30,14.10
2010,08,01,08,31,14.10
2010,08,01,08,32,14.10
2010,08,01,08,33,14.10
2010,08,01,08,34,14.10
2010,08,01,08,35,14.10
2010,08,01,08,36,14.00
2010,08,01,08,37,14.00
2010,08,01,08,38,14.00
2010,08,01,08,39,14.00
2010,08,01,08,40,14.00
2010,08,01,08,41,14.00
2010,08,01,08,42,14.00
2010,08,01,08,43,14.00
2010,08,01,08,44,14.00
2010,08,01,08,45,14.00
2010,08,01,08,46,14.00
2010,08,01,08,47,14.00
2010,08,01,08,48,14.00
2010,08,01,08,49,14.00
2010,08,01,08,50,14.10
2010,08,01,08,51,14.10
2010,08,01,08,52,14.10
2010,08,01,08,53,14.10
2010,08,01,08,54,14.10
2010,08,01,08,55,14.10
2010,08,01,08,56,14.10
2010,08,01,08,57,14.10
2010,08,01,08,58,14.10
2010,08,01,08,59,14.10
2010,08,01,09,00,14.20
2010,08,01,09,01,14.20
2010,08,01,09,02,14.20
2010,08,01,09,03,14.20
2010,08,01,09,04,14.20
2010,08,01,09,05,14.20
2010,08,01,09,06,14.20
2010,08,01,09,07,14.20
2010,08,01,09,08,14.20
2010,08,01,09,09,14.20
2010,08,01,09,10,14.20
2010,08,01,09,11,14.20
2010,08,01,09,12,14.20
2010,08,01,09,13,14.20
2010,08,01,09,14,14.30
2010,08,01,09,15,14.30
2010,08,01,09,16,14.30
2010,08,01,09,17,14.40
2010,08,01,09,18,14.40
2010,08,01,09,19,14.40
2010,08,01,09,20,14.50
2010,08,01,09,21,14.50
2010,08,01,09,22,14.50
2010,08,01,09,23,14.50
2010,08,01,09,24,14.60
2010,08,01,09,25,14.60
2010,08,01,09,26,14.70
2010,08,01,09,27,14.70
2010,08,01,09,28,14.70
2010,08,01,09,29,14.70
2010,08,01,09,30,14.70
2010,08,01,09,31,14.70
2010,08,01,09,32,14.70
2010,08,01,09,33,14.70
2010,08,01,09,34,14.80
2010,08,01,09,35,14.80
2010,08,01,09,36,14.80
2010,08,01,09,37,14.80
2010,08,01,09,38,14.80
2010,08,01,09,39,14.90
2010,08,01,09,40,14.90
2010,08,01,09,41,14.90
2010,08,01,09,42,15.00
2010,08,01,09,43,15.00
2010,08,01,09,44,14.90
2010,08,01,09,45,14.90
2010,08,01,09,46,14.90
2010,08,01,09,47,15.00
2010,08,01,09,48,15.00
2010,08,01,09,49,15.00
2010,08,01,09,50,15.00
2010,08,01,09,51,15.10
2010,08,01,09,52,15.00
2010,08,01,09,53,15.00
2010,08,01,09,54,15.10
2010,08,01,09,55,15.00
2010,08,01,09,56,15.00
2010,08,01,09,57,15.10
2010,08,01,09,58,15.10
2010,08,01,09,59,15.20
2010,08,01,10,00,15.30
2010,08,01,10,01,15.30
2010,08,01,10,02,15.30
2010,08,01,10,03,15.30
2010,08,01,10,04,15.40
2010,08,01,10,05,15.40
2010,08,01,10,06,15.50
2010,08,01,10,07,15.60
2010,08,01,10,08,15.60
2010,08,01,10,09,15.50
2010,08,01,10,10,15.50
2010,08,01,10,11,15.40
2010,08,01,10,12,15.50
2010,08,01,10,13,15.50
2010,08,01,10,14,15.50
2010,08,01,10,15,15.50
2010,08,01,10,16,15.60
2010,08,01,10,17,15.60
2010,08,01,10,18,15.60
2010,08,01,10,19,15.70
2010,08,01,10,20,15.70
2010,08,01,10,21,15.80
2010,08,01,10,22,15.70
2010,08,01,10,23,15.80
2010,08,01,10,24,15.80
2010,08,01,10,25,15.60
2010,08,01,10,26,15.60
2010,08,01,10,27,15.50
2010,08,01,10,28,15.50
2010,08,01,10,29,15.60
2010,08,01,10,30,15.60
2010,08,01,10,31,15.70
2010,08,01,10,32,15.70
2010,08,01,10,33,15.80
2010,08,01,10,34,15.80
2010,08,01,10,35,15.80
2010,08,01,10,36,15.80
2010,08,01,10,37,15.80
2010,08,01,10,38,15.80
2010,08,01,10,39,15.90
2010,08,01,10,40,15.90
2010,08,01,10,41,16.10
2010,08,01,10,42,16.10
2010,08,01,10,43,16.10
2010,08,01,10,44,16.10
2010,08,01,10,45,16.20
2010,08,01,10,46,16.20
2010,08,01,10,47,16.30
2010,08,01,10,48,16.40
2010,08,01,10,49,16.40
2010,08,01,10,50,16.40
2010,08,01,10,51,16.40
2010,08,01,10,52,16.40
2010,08,01,10,53,16.40
2010,08,01,10,54,16.40
2010,08,01,10,55,16.50
2010,08,01,10,56,16.60
2010,08,01,10,57,16.70
2010,08,01,10,58,16.70
2010,08,01,10,59,16.70
2010,08,01,11,00,16.70
2010,08,01,11,01,16.80
2010,08,01,11,02,16.80
2010,08,01,11,03,16.90
2010,08,01,11,04,16.90
2010,08,01,11,05,17.00
2010,08,01,11,06,17.00
2010,08,01,11,07,17.00
2010,08,01,11,08,16.90
2010,08,01,11,09,16.90
2010,08,01,11,10,16.90
2010,08,01,11,11,17.00
2010,08,01,11,12,17.10
2010,08,01,11,13,17.10
2010,08,01,11,14,17.00
2010,08,01,11,15,17.00
2010,08,01,11,16,17.00
2010,08,01,11,17,17.00
2010,08,01,11,18,17.00
2010,08,01,11,19,17.10
2010,08,01,11,20,17.20
2010,08,01,11,21,17.20
2010,08,01,11,22,17.10
2010,08,01,11,23,17.10
2010,08,01,11,24,17.00
2010,08,01,11,25,16.90
2010,08,01,11,26,16.90
2010,08,01,11,27,16.90
2010,08,01,11,28,16.90
2010,08,01,11,29,16.90
2010,08,01,11,30,17.00
2010,08,01,11,31,17.00
2010,08,01,11,32,17.00
2010,08,01,11,33,17.00
2010,08,01,11,34,17.00
2010,08,01,11,35,17.00
2010,08,01,11,36,16.90
2010,08,01,11,37,16.90
2010,08,01,11,38,16.80
2010,08,01,11,39,16.70
2010,08,01,11,40,16.70
2010,08,01,11,41,16.70
2010,08,01,11,42,16.60
2010,08,01,11,43,16.70
2010,08,01,11,44,16.70
2010,08,01,11,45,16.60
2010,08,01,11,46,16.60
2010,08,01,11,47,16.60
2010,08,01,11,48,16.60
2010,08,01,11,49,16.60
2010,08,01,11,50,16.60
2010,08,01,11,51,16.60
2010,08,01,11,52,16.40
2010,08,01,11,53,16.30
2010,08,01,11,54,16.30
2010,08,01,11,55,16.30
2010,08,01,11,56,16.40
2010,08,01,11,57,16.40
2010,08,01,11,58,16.40
2010,08,01,11,59,16.50
2010,08,01,12,00,16.60
2010,08,01,12,01,16.70
2010,08,01,12,02,16.60
2010,08,01,12,03,16.50
2010,08,01,12,04,16.40
2010,08,01,12,05,16.60
2010,08,01,12,06,16.60
2010,08,01,12,07,16.60
2010,08,01,12,08,16.60
2010,08,01,12,09,16.70
2010,08,01,12,10,16.70
2010,08,01,12,11,16.70
2010,08,01,12,12,16.70
2010,08,01,12,13,16.70
2010,08,01,12,14,16.80
2010,08,01,12,15,16.70
2010,08,01,12,16,16.80
2010,08,01,12,17,16.70
2010,08,01,12,18,16.70
2010,08,01,12,19,16.70
2010,08,01,12,20,16.70
2010,08,01,12,21,16.70
2010,08,01,12,22,16.80
2010,08,01,12,23,16.80
2010,08,01,12,24,16.90
2010,08,01,12,25,16.90
2010,08,01,12,26,17.00
2010,08,01,12,27,17.10
2010,08,01,12,28,17.20
2010,08,01,12,29,17.30
2010,08,01,12,30,17.30
2010,08,01,12,31,17.30
2010,08,01,12,32,17.40
2010,08,01,12,33,17.40
2010,08,01,12,34,17.50
2010,08,01,12,35,17.60
2010,08,01,12,36,17.70
2010,08,01,12,37,17.70
2010,08,01,12,38,17.80
2010,08,01,12,39,17.80
2010,08,01,12,40,17.80
2010,08,01,12,41,17.70
2010,08,01,12,42,17.60
2010,08,01,12,43,17.70
2010,08,01,12,44,17.70
2010,08,01,12,45,17.70
2010,08,01,12,46,17.70
2010,08,01,12,47,17.70
2010,08,01,12,48,17.80
2010,08,01,12,49,17.90
2010,08,01,12,50,18.00
2010,08,01,12,51,18.10
2010,08,01,12,52,18.20
2010,08,01,12,53,18.30
2010,08,01,12,54,18.30
2010,08,01,12,55,18.40
2010,08,01,12,56,18.30
2010,08,01,12,57,18.20
2010,08,01,12,58,18.20
2010,08,01,12,59,18.30
2010,08,01,13,00,18.40
2010,08,01,13,01,18.40
2010,08,01,13,02,18.50
2010,08,01,13,03,18.50
2010,08,01,13,04,18.50
2010,08,01,13,05,18.30
2010,08,01,13,06,18.30
2010,08,01,13,07,18.40
2010,08,01,13,08,18.40
2010,08,01,13,09,18.40
2010,08,01,13,10,18.30
2010,08,01,13,11,18.40
2010,08,01,13,12,18.30
2010,08,01,13,13,18.20
2010,08,01,13,14,18.20
2010,08,01,13,15,18.20
2010,08,01,13,16,18.20
2010,08,01,13,17,18.20
2010,08,01,13,18,18.20
2010,08,01,13,19,18.20
2010,08,01,13,20,18.20
2010,08,01,13,21,18.20
2010,08,01,13,22,18.20
2010,08,01,13,23,18.20
2010,08,01,13,24,18.20
2010,08,01,13,25,18.20
2010,08,01,13,26,18.30
2010,08,01,13,27,18.40
2010,08,01,13,28,18.30
2010,08,01,13,29,18.20
2010,08,01,13,30,18.20
2010,08,01,13,31,18.20
2010,08,01,13,32,18.20
2010,08,01,13,33,18.30
2010,08,01,13,34,18.40
2010,08,01,13,35,18.50
2010,08,01,13,36,18.50
2010,08,01,13,37,18.50
2010,08,01,13,38,18.50
2010,08,01,13,39,18.50
2010,08,01,13,40,18.50
2010,08,01,13,41,18.50
2010,08,01,13,42,18.50
2010,08,01,13,43,18.40
2010,08,01,13,44,18.30
2010,08,01,13,45,18.30
2010,08,01,13,46,18.40
2010,08,01,13,47,18.40
2010,08,01,13,48,18.50
2010,08,01,13,49,18.50
2010,08,01,13,50,18.60
2010,08,01,13,51,18.50
2010,08,01,13,52,18.60
2010,08,01,13,53,18.60
2010,08,01,13,54,18.70
2010,08,01,13,55,18.70
2010,08,01,13,56,18.80
2010,08,01,13,57,18.90
2010,08,01,13,58,18.80
2010,08,01,13,59,18.70
2010,08,01,14,00,18.50
2010,08,01,14,01,18.60
2010,08,01,14,02,18.60
2010,08,01,14,03,18.80
2010,08,01,14,04,18.80
2010,08,01,14,05,18.60
2010,08,01,14,06,18.50
2010,08,01,14,07,18.50
2010,08,01,14,08,18.60
2010,08,01,14,09,18.60
2010,08,01,14,10,18.60
2010,08,01,14,11,18.70
2010,08,01,14,12,18.90
2010,08,01,14,13,18.90
2010,08,01,14,14,18.90
2010,08,01,14,15,19.00
2010,08,01,14,16,19.10
2010,08,01,14,17,19.10
2010,08,01,14,18,19.10
2010,08,01,14,19,19.20
2010,08,01,14,20,19.40
2010,08,01,14,21,19.40
2010,08,01,14,22,19.30
2010,08,01,14,23,19.20
2010,08,01,14,24,19.20
2010,08,01,14,25,19.30
2010,08,01,14,26,19.30
2010,08,01,14,27,19.30
2010,08,01,14,28,19.30
2010,08,01,14,29,19.40
2010,08,01,14,30,19.40
2010,08,01,14,31,19.30
2010,08,01,14,32,19.10
2010,08,01,14,33,18.90
2010,08,01,14,34,19.00
2010,08,01,14,35,19.10
2010,08,01,14,36,19.20
2010,08,01,14,37,19.30
2010,08,01,14,38,19.40
2010,08,01,14,39,19.60
2010,08,01,14,40,19.60
2010,08,01,14,41,19.70
2010,08,01,14,42,19.80
2010,08,01,14,43,19.80
2010,08,01,14,44,19.80
2010,08,01,14,45,19.80
2010,08,01,14,46,19.70
2010,08,01,14,47,19.70
2010,08,01,14,48,19.70
2010,08,01,14,49,19.70
2010,08,01,14,50,19.60
2010,08,01,14,51,19.60
2010,08,01,14,52,19.60
2010,08,01,14,53,19.70
2010,08,01,14,54,19.70
2010,08,01,14,55,19.70
2010,08,01,14,56,19.60
2010,08,01,14,57,19.50
2010,08,01,14,58,19.40
2010,08,01,14,59,19.40
2010,08,01,15,00,19.20
2010,08,01,15,01,19.10
2010,08,01,15,02,18.90
2010,08,01,15,03,18.90
2010,08,01,15,04,19.00
2010,08,01,15,05,19.10
2010,08,01,15,06,19.10
2010,08,01,15,07,19.10
2010,08,01,15,08,19.10
2010,08,01,15,09,19.10
2010,08,01,15,10,19.10
2010,08,01,15,11,19.10
2010,08,01,15,12,19.10
2010,08,01,15,13,19.10
2010,08,01,15,14,19.30
2010,08,01,15,15,19.30
2010,08,01,15,16,19.30
2010,08,01,15,17,19.30
2010,08,01,15,18,19.20
2010,08,01,15,19,19.20
2010,08,01,15,20,19.20
2010,08,01,15,21,19.00
2010,08,01,15,22,18.90
2010,08,01,15,23,18.90
2010,08,01,15,24,19.10
2010,08,01,15,25,19.10
2010,08,01,15,26,19.00
2010,08,01,15,27,18.90
2010,08,01,15,28,18.90
2010,08,01,15,29,19.00
2010,08,01,15,30,19.10
2010,08,01,15,31,19.10
2010,08,01,15,32,19.00
2010,08,01,15,33,18.90
2010,08,01,15,34,18.70
2010,08,01,15,35,18.70
2010,08,01,15,36,18.60
2010,08,01,15,37,18.60
2010,08,01,15,38,18.50
2010,08,01,15,39,18.30
2010,08,01,15,40,18.10
2010,08,01,15,41,17.90
2010,08,01,15,42,17.70
2010,08,01,15,43,17.50
2010,08,01,15,44,17.60
2010,08,01,15,45,17.60
2010,08,01,15,46,17.70
2010,08,01,15,47,17.70
2010,08,01,15,48,17.60
2010,08,01,15,49,17.70
2010,08,01,15,50,17.60
2010,08,01,15,51,17.60
2010,08,01,15,52,17.50
2010,08,01,15,53,17.40
2010,08,01,15,54,17.50
2010,08,01,15,55,17.60
2010,08,01,15,56,17.60
2010,08,01,15,57,17.60
2010,08,01,15,58,17.60
2010,08,01,15,59,17.60
2010,08,01,16,00,17.70
2010,08,01,16,01,17.80
2010,08,01,16,02,17.80
2010,08,01,16,03,17.80
2010,08,01,16,04,17.90
2010,08,01,16,05,17.80
2010,08,01,16,06,17.60
2010,08,01,16,07,17.30
2010,08,01,16,08,17.00
2010,08,01,16,09,16.80
2010,08,01,16,10,16.60
2010,08,01,16,11,16.40
2010,08,01,16,12,16.30
2010,08,01,16,13,16.20
2010,08,01,16,14,16.10
2010,08,01,16,15,16.10
2010,08,01,16,16,16.00
2010,08,01,16,17,15.90
2010,08,01,16,18,15.90
2010,08,01,16,19,15.80
2010,08,01,16,20,15.80
2010,08,01,16,21,15.80
2010,08,01,16,22,16.00
2010,08,01,16,23,16.20
2010,08,01,16,24,16.40
2010,08,01,16,25,16.70
2010,08,01,16,26,16.80
2010,08,01,16,27,16.90
2010,08,01,16,28,17.10
2010,08,01,16,29,17.20
2010,08,01,16,30,17.30
2010,08,01,16,31,17.40
2010,08,01,16,32,17.50
2010,08,01,16,33,17.70
2010,08,01,16,34,17.80
2010,08,01,16,35,18.00
2010,08,01,16,36,18.10
2010,08,01,16,37,18.20
2010,08,01,16,38,18.20
2010,08,01,16,39,18.20
2010,08,01,16,40,18.20
2010,08,01,16,41,18.30
2010,08,01,16,42,18.40
2010,08,01,16,43,18.50
2010,08,01,16,44,18.50
2010,08,01,16,45,18.60
2010,08,01,16,46,18.60
2010,08,01,16,47,18.80
2010,08,01,16,48,18.80
2010,08,01,16,49,18.80
2010,08,01,16,50,18.90
2010,08,01,16,51,19.00
2010,08,01,16,52,19.10
2010,08,01,16,53,19.20
2010,08,01,16,54,19.30
2010,08,01,16,55,19.40
2010,08,01,16,56,19.40
2010,08,01,16,57,19.40
2010,08,01,16,58,19.50
2010,08,01,16,59,19.60
2010,08,01,17,00,19.70
2010,08,01,17,01,19.80
2010,08,01,17,02,19.90
2010,08,01,17,03,19.90
2010,08,01,17,04,19.90
2010,08,01,17,05,19.90
2010,08,01,17,06,19.90
2010,08,01,17,07,19.90
2010,08,01,17,08,20.00
2010,08,01,17,09,20.10
2010,08,01,17,10,20.20
2010,08,01,17,11,20.10
2010,08,01,17,12,20.10
2010,08,01,17,13,20.20
2010,08,01,17,14,20.10
2010,08,01,17,15,20.10
2010,08,01,17,16,20.10
2010,08,01,17,17,20.20
2010,08,01,17,18,20.20
2010,08,01,17,19,20.30